Regional Weather Roundup
Issued by NWS Glasgow, MT

Home | Current Version | Previous Version | Text Only | Print | Product List | Glossary On
Versions: 1 2 3 4 5 6 7 8 9 10 11 12 13 14 15 16 17 18 19 20 21 22 23 24 25 26 27 28 29 30 31 32 33 34 35 36 37 38 39 40 41 42 43 44 45 46 47 48 49
000
ASUS45 KGGW 250115
RWRGGW
HOURLY WEATHER ROUNDUP FOR NORTHEAST MONTANA
NATIONAL WEATHER SERVICE GLASGOW MONTANA
700 PM MDT SUN MAY 24 2015

NOTE: "FAIR" INDICATES FEW OR NO CLOUDS BELOW 12,000 FEET WITH NO
SIGNIFICANT WEATHER AND/OR OBSTRUCTIONS TO VISISBILITY.

NORTHEAST MONTANA


CITY           SKY/WX    TMP DP  RH WIND       PRES   REMARKS
GLASGOW        PTSUNNY   72  40  31 SE15      29.91S
WOLF POINT     PTSUNNY   73  45  36 VRB3      29.90F
JORDAN           N/A     67  45  45 SE8       29.92F
WINNETT          N/A     63  44  50 W3          N/A
SIDNEY         PTSUNNY   64  54  68 CALM      29.92S
GLENDIVE       CLOUDY    54  52  94 SW8       29.95F
MALTA            N/A     79  42  26 W3G12       N/A
SCOBEY           N/A     73  34  23 E9        29.92

FORT PECK REPORTS


CITY           SKY/WX    TMP DP  RH WIND       PRES   REMARKS
FORT PECK        N/A     68  43  40 E16         N/A
THE PINES        N/A     70  39  32 E5          N/A

SOUTHEAST MONTANA


CITY           SKY/WX    TMP DP  RH WIND       PRES   REMARKS
BILLINGS       CLOUDY    61  44  53 NE6       29.95F
MILES CITY     CLOUDY    64  47  53 E8        29.92F
BAKER          CLOUDY    58  53  84 CALM      29.94F
LIVINGSTON     CLOUDY    55  44  66 E13       29.98S

CENTRAL MONTANA


CITY           SKY/WX    TMP DP  RH WIND       PRES   REMARKS
HAVRE          PTSUNNY   66  43  43 SE18G26   29.96S
LEWISTOWN      PTSUNNY   60  47  61 VRB3      29.99F
GREAT FALLS    SUNNY     62  41  46 E8        29.97F
CUT BANK       MOSUNNY   63  36  36 SE8       29.99F
HELENA         CLOUDY    58  47  66 NE13      29.98R
BUTTE          LGT RAIN  56  36  47 W6        29.99F
BOZEMAN        CLOUDY    53  47  79 CALM      29.98F

WESTERN MONTANA


CITY           SKY/WX    TMP DP  RH WIND       PRES   REMARKS
MISSOULA       SUNNY     69  35  28 SE14      29.92F
KALISPELL      NOT AVBL

NORTH DAKOTA


CITY           SKY/WX    TMP DP  RH WIND       PRES   REMARKS
WILLISTON      MOSUNNY   73  38  27 E10       29.90F
DICKINSON      CLOUDY    61  50  67 NE6       29.90F
MINOT          PTSUNNY   70  42  36 E12       29.90F
BISMARCK       CLOUDY    64  51  62 E6        29.90S

SOUTHERN SASKATCHEWAN


CITY           SKY/WX    TMP DP  RH WIND       PRES   REMARKS
REGINA         MOSUNNY   75  36  23 CALM      29.92F
ESTEVAN        PTSUNNY   75  36  23 E9        29.91F
SWIFT CURRENT  PTSUNNY   73  28  19 NE3       29.95F



USA.gov is the U.S. government's official web portal to all federal, state and local government web resources and services.